Temp
14 14 14 14 14 14 14 14 14 14 13 13 13 14 14 14 14 14 14 14 14 14 14 13 14 14 15 17 19 23 23 23 23 23 24 23 23 22 21 22 23 24 25 25 25 26 27
14 14 14 14 14 14 14 14 13 13 13 14 14 14 14 14 14 14 14 14 14 14 14 13 13 13 15 16 23 23 23 23 23 23 24 24 23 22 21 22 23 24 24 23 24 24 25
15 14 14 14 14 14 14 13 13 13 13 13 13 14 14 14 13 13 14 14 15 14 14 13 12 11 13 15 22 22 22 23 23 23 23 24 24 21 20 21 24 24 22 22 23 24 24
15 14 14 14 14 13 13 12 12 12 12 12 12 12 13 13 13 12 13 14 14 15 14 12 12 11 12 21 21 22 22 22 23 23 23 24 23 21 21 21 22 22 22 20 23 24 24
12 12 12 12 11 11 11 12 12 11 11 10 10 11 11 11 11 11 11 14 15 13 13 13 11 12 14 20 21 23 23 23 23 24 24 24 23 20 21 20 18 21 20 21 23 25 24
11 11 11 11 10 10 11 11 10 10 10 10 9 9 10 10 10 10 11 14 16 13 13 12 13 14 16 20 23 22 22 23 22 22 22 21 20 18 18 18 18 20 21 21 22 23 23
10 10 10 10 10 9 9 10 10 9 9 9 9 9 9 9 9 10 12 14 15 12 12 15 17 17 21 23 23 22 23 23 22 21 19 20 18 17 18 20 22 22 21 20 21 23 22
10 9 9 9 9 9 9 9 9 9 9 9 8 8 8 8 9 9 11 10 15 15 12 16 18 19 20 21 20 21 22 21 20 18 20 19 18 20 23 23 22 22 21 20 21 23 23
9 10 10 9 9 9 9 8 9 9 9 8 8 8 8 8 10 11 11 13 15 14 12 16 19 19 20 21 20 20 21 20 19 18 19 18 20 23 23 22 22 21 20 19 20 20 20
9 9 9 9 9 9 9 9 9 8 8 8 7 7 8 9 10 11 12 13 14 13 9 16 19 20 20 19 18 21 22 20 20 19 19 19 21 22 20 20 21 19 21 20 20 18 16
9 8 9 9 9 9 9 9 8 8 8 7 7 7 7 8 8 10 11 13 13 13 10 20 19 19 20 18 20 20 20 20 18 18 20 18 19 20 20 20 21 20 20 20 19 18 16
8 9 8 9 9 9 9 8 8 8 8 7 7 7 7 8 9 11 11 12 12 10 11 19 18 17 18 18 19 19 19 19 19 18 19 18 20 20 20 21 21 21 20 19 18 17 14
7 8 8 8 8 8 8 8 8 8 8 7 7 7 7 8 9 10 11 11 9 9 18 18 18 18 18 18 18 18 18 17 16 16 16 19 19 20 21 19 20 19 18 13 13 13 14
6 7 7 8 8 8 8 8 8 8 8 7 7 7 7 8 9 10 10 10 9 14 16 20 19 19 17 19 18 18 18 17 17 18 17 16 15 21 21 20 19 18 18 14 15 15 16
6 6 7 7 7 8 8 7 8 8 7 7 7 7 7 8 9 9 8 8 10 15 18 19 18 17 17 19 18 18 18 17 19 19 17 17 18 20 21 21 20 19 17 18 16 16 14
5 5 6 7 7 7 7 7 8 7 7 7 6 7 8 9 9 9 8 10 13 17 17 17 16 17 16 17 16 17 17 19 19 19 18 18 14 19 20 20 20 19 19 15 13 14 14
4 4 5 6 6 7 7 7 7 7 7 7 6 6 10 9 9 7 7 9 14 16 17 16 16 16 17 17 17 16 17 19 18 18 19 18 16 15 17 18 18 17 17 17 17 13 12
4 4 4 5 5 6 7 7 7 7 7 6 7 5 10 9 6 6 8 12 14 15 15 15 15 15 16 17 15 16 16 17 17 16 16 16 14 10 15 17 18 17 16 17 12 14 13
3 3 4 4 5 6 6 7 7 7 7 6 5 6 9 9 7 6 9 12 13 13 15 14 15 15 16 14 11 12 13 15 15 15 13 14 11 11 12 15 17 16 17 16 16 13 13
3 3 3 4 5 5 6 6 7 7 6 7 6 5 5 7 7 9 9 11 12 15 15 15 15 15 14 13 12 10 13 15 15 15 14 14 13 12 8 12 14 13 15 15 14 9 11
3 3 3 3 4 5 5 6 6 6 6 6 6 6 7 6 6 7 9 10 12 13 14 14 14 14 13 9 11 11 12 13 14 15 14 13 11 12 12 13 13 13 13 13 13 12 11
3 3 3 3 4 4 5 5 6 6 6 4 5 6 7 8 8 8 8 9 10 13 13 12 12 14 13 11 10 10 12 11 11 14 14 13 10 11 9 12 13 11 11 10 12 13 13
3 3 3 3 3 4 4 5 5 6 5 3 5 9 7 7 8 7 8 9 12 13 14 14 13 13 12 13 12 12 12 12 12 12 11 11 11 10 10 12 12 11 10 11 13 14 14
2 2 3 3 3 3 4 4 5 5 5 4 7 9 7 5 8 9 11 10 11 12 11 14 13 13 13 12 12 12 12 12 11 11 12 10 10 10 9 10 9 10 14 15 14 15 15
2 2 2 2 3 3 3 4 5 5 5 4 7 8 7 5 9 10 10 11 11 12 12 12 13 13 10 9 8 9 8 10 11 12 11 11 10 9 9 9 11 12 14 14 14 12 13
2 2 2 2 3 3 3 3 4 4 5 3 5 8 8 6 7 11 11 11 9 9 10 11 12 13 11 7 6 8 9 11 12 13 13 12 10 9 8 9 9 13 13 13 14 9 13
2 2 2 2 2 3 3 3 4 5 5 4 4 6 8 6 9 11 9 9 11 10 8 11 11 11 10 4 7 6 8 11 10 11 12 10 10 9 9 9 9 14 13 14 10 11 14
1 2 2 2 2 3 3 3 4 5 4 4 4 6 7 6 8 9 11 10 10 9 6 8 8 8 7 6 7 7 8 10 10 12 12 11 10 9 9 9 10 12 12 12 10 14 14
1 1 1 2 2 3 3 3 4 4 5 3 4 5 6 5 4 6 7 8 9 9 7 7 7 8 7 6 7 7 8 9 10 8 13 10 10 10 10 9 11 11 10 11 12 12 14
Height
841 843 843 845 846 847 848 849 849 849 848 847 846 845 846 841 839 837 835 832 828 825 822 821 818 813 807 805 796 789 787 786 785 783 783 782 783 786 791 783 775 773 771 766 763 760 758
836 837 838 840 841 840 842 844 846 845 846 845 843 844 843 840 839 836 834 829 827 824 821 820 818 815 813 812 788 788 787 786 785 784 782 781 782 782 787 783 781 772 769 769 765 765 762
829 831 832 834 836 838 839 840 841 843 843 843 841 841 839 837 837 835 831 828 825 823 820 818 818 816 816 801 786 785 786 784 784 784 783 783 782 784 786 786 772 772 780 774 765 762 765
825 827 828 830 833 834 835 837 837 841 842 842 841 839 837 835 835 833 830 825 823 819 817 817 817 816 809 787 785 784 783 781 780 781 782 782 781 784 785 778 778 780 780 793 759 755 755
823 824 824 827 829 831 833 835 836 837 841 841 840 837 834 835 832 831 827 823 819 817 814 815 815 815 801 786 784 782 783 781 778 778 779 780 781 785 783 790 801 785 798 786 770 744 753
824 825 825 827 829 831 833 834 835 837 837 839 838 837 831 833 830 828 824 819 814 813 812 814 814 816 796 784 781 782 782 781 780 778 780 782 786 793 795 799 813 796 789 782 779 764 765
824 826 826 825 826 829 831 833 834 834 836 837 835 835 833 832 830 827 822 817 816 814 812 807 799 793 783 781 779 780 780 780 779 782 793 785 800 803 792 785 780 778 783 789 777 762 770
822 823 824 826 826 826 828 831 832 832 834 834 833 833 833 829 829 828 825 823 822 823 816 798 792 789 781 780 780 778 780 784 785 794 786 792 797 781 770 770 775 778 784 789 775 765 767
821 821 820 823 825 827 827 829 830 830 830 831 831 831 830 829 827 825 825 822 821 818 820 792 780 779 776 776 776 775 778 779 787 792 788 793 780 767 768 772 778 780 785 788 788 778 774
818 819 819 820 823 824 828 826 829 830 829 829 828 830 829 826 828 824 824 823 818 820 831 793 777 774 773 775 780 769 771 778 780 787 785 784 771 771 774 779 777 790 776 780 783 793 805
813 814 817 818 819 821 826 828 826 827 828 829 827 827 827 826 824 825 825 821 821 821 845 778 780 774 774 783 777 775 771 772 783 783 781 785 777 776 779 775 772 784 776 781 782 792 798
809 809 810 815 816 818 821 823 825 825 827 829 826 824 827 825 825 823 822 823 821 837 833 779 780 782 783 782 779 778 779 776 773 780 778 781 768 771 773 767 770 772 780 783 785 793 811
804 804 806 809 812 814 816 819 821 824 823 825 825 824 823 825 824 823 822 824 842 838 779 781 779 776 781 781 780 781 784 788 791 795 792 778 775 765 763 777 771 777 789 817 818 816 807
800 802 802 804 807 809 811 814 818 819 821 823 824 822 823 823 824 822 824 828 836 795 784 767 773 774 782 776 776 777 780 788 780 781 789 792 797 765 757 764 775 777 786 811 807 805 796
797 797 798 800 802 804 806 810 814 817 819 819 821 822 821 821 823 824 827 836 811 791 777 773 775 781 780 775 777 774 778 781 774 771 788 786 780 764 761 757 764 775 786 776 791 789 800
793 792 793 795 797 799 802 805 810 813 816 818 821 818 817 818 822 824 827 809 794 776 776 775 783 779 787 780 783 780 779 770 771 767 769 778 794 769 764 762 763 768 767 794 799 802 801
787 788 789 791 791 793 796 800 804 810 813 817 820 819 809 812 820 824 824 812 791 780 776 782 781 782 780 779 775 780 780 772 769 767 766 774 786 789 776 775 776 775 777 774 777 797 809
782 783 784 786 787 788 791 793 798 804 810 814 816 819 807 811 822 821 814 798 788 781 780 782 783 784 781 776 784 782 780 777 774 776 780 781 790 809 785 771 765 769 775 775 801 793 793
777 778 779 780 782 783 786 788 791 797 802 809 810 811 807 808 814 814 805 795 793 786 782 783 784 781 779 786 800 795 788 779 779 781 790 789 802 808 794 781 768 772 770 771 775 781 787
772 772 773 775 776 778 780 782 784 789 795 803 804 813 809 808 803 801 802 795 787 779 781 780 780 779 785 789 790 804 790 782 782 782 786 787 793 799 823 797 789 787 779 777 783 812 795
766 766 767 768 769 771 773 776 779 779 787 797 796 795 794 802 804 801 799 791 784 781 779 780 781 782 786 804 795 800 792 789 786 783 784 790 801 797 791 789 788 786 783 781 785 785 798
759 760 761 762 763 766 767 769 774 773 782 791 791 785 786 787 789 796 797 790 786 775 780 783 785 780 782 792 798 801 792 794 792 783 783 785 799 794 800 788 784 786 787 787 778 774 773
753 753 754 755 758 759 762 764 767 763 775 777 784 775 780 785 784 792 790 784 776 773 771 772 777 781 783 783 785 788 787 788 788 789 792 792 794 797 791 784 779 783 779 773 764 760 760
745 746 747 749 751 753 755 758 760 763 764 773 778 773 781 789 779 778 774 777 774 771 775 770 772 776 780 781 781 784 785 785 787 787 786 790 793 798 801 795 797 774 754 752 752 750 746
736 738 739 741 744 747 749 752 755 757 758 769 771 773 773 785 771 772 772 769 771 768 770 773 773 775 779 787 799 796 797 788 779 772 773 778 791 796 797 795 775 763 751 750 748 755 748
727 728 731 733 736 739 743 746 750 753 756 766 768 771 769 774 774 765 766 764 772 773 775 775 773 775 781 798 805 804 797 776 770 758 756 769 781 794 800 790 783 752 747 745 744 770 746
717 719 721 724 728 731 735 739 743 746 747 759 764 768 769 772 765 763 765 768 765 769 778 774 774 778 779 806 804 808 798 775 779 764 760 772 777 782 785 785 773 746 745 742 765 759 744
707 709 712 715 719 723 727 731 735 738 744 751 761 764 767 768 765 762 761 764 767 771 786 780 783 783 790 799 800 797 786 774 768 758 757 760 770 773 778 776 769 744 744 750 752 740 741
697 699 702 706 711 715 719 723 728 733 732 747 758 760 763 767 770 766 766 767 770 772 778 780 784 785 789 794 794 789 783 776 766 778 751 766 760 761 763 763 745 743 745 743 743 742 739
Wind_Speed
25 25 24 25 24 23 21 19 17 15 14 14 14 15 19 19 19 20 21 22 22 23 22 24 25 26 16 5 8 5 8 10 11 12 10 8 7 6 7 6 10 6 6 9 9 8 3
25 26 26 27 25 27 21 19 17 15 14 14 14 15 17 18 20 22 23 23 23 23 22 23 20 22 6 5 4 6 11 10 11 11 12 11 4 7 7 7 5 8 6 9 9 11 7
25 26 25 24 24 23 23 21 17 14 13 15 14 14 16 19 22 23 24 24 23 23 22 20 16 13 5 16 9 16 20 14 12 13 5 15 11 5 8 8 5 9 8 9 11 9 9
19 21 26 22 26 25 23 17 11 11 13 13 13 13 16 19 22 24 24 24 24 22 20 18 13 8 7 16 17 16 13 17 15 14 9 11 6 5 4 6 7 5 4 3 12 11 9
8 11 14 15 15 13 11 7 7 9 10 11 12 13 15 17 19 23 25 25 22 20 17 13 8 4 9 14 7 9 4 10 15 11 9 6 3 4 5 2 6 3 5 6 12 7 5
4 6 6 4 3 3 4 6 8 9 9 12 14 15 12 16 17 21 24 25 21 21 11 5 9 5 8 4 2 7 8 10 3 8 3 5 2 3 4 1 5 7 5 5 3 6 8
11 12 12 10 10 9 8 9 9 8 10 13 14 14 13 14 16 18 21 12 6 2 3 7 3 6 7 9 3 3 14 7 4 5 5 7 2 7 11 10 8 4 6 9 7 11 7
10 10 10 10 10 7 8 11 11 10 11 13 13 13 13 12 16 18 10 3 5 4 9 15 21 19 31 21 9 5 15 2 3 7 7 5 10 13 10 7 6 5 6 7 6 10 13
13 12 11 11 10 8 9 11 11 9 9 11 12 12 11 11 15 10 6 9 10 10 4 12 11 10 15 15 14 12 5 5 6 9 9 9 9 9 8 5 5 5 5 6 7 7 7
15 15 14 14 14 12 13 12 11 10 9 11 10 10 8 7 7 6 6 9 8 7 3 6 5 3 3 4 4 9 18 4 6 8 9 8 10 12 4 3 5 5 6 6 7 7 2
15 16 16 18 18 16 15 15 12 11 11 11 9 9 8 5 8 7 6 4 8 2 4 3 4 1 3 5 1 1 5 3 4 8 3 7 7 3 2 2 4 2 6 4 3 4 7
16 17 17 19 20 20 19 17 15 13 11 11 11 9 9 7 8 6 9 6 2 4 7 3 4 4 4 4 4 2 2 1 3 6 8 8 8 3 4 2 1 5 3 6 5 2 5
16 16 18 19 21 24 22 20 17 14 11 10 11 9 12 8 1 5 5 1 3 4 5 4 3 6 7 6 5 4 5 3 3 2 4 5 12 11 9 6 3 4 1 3 3 1 6
15 17 17 19 22 24 26 22 19 15 12 10 8 7 10 13 6 6 1 2 5 7 9 2 2 6 6 5 6 9 5 5 8 6 4 5 6 4 7 14 6 6 8 4 4 3 9
17 17 17 18 20 24 27 24 21 18 13 10 8 9 11 13 7 4 1 3 7 6 5 1 2 3 3 6 4 2 5 5 6 5 5 2 4 12 9 4 5 1 4 5 4 6 2
16 17 18 18 19 22 24 24 23 21 16 11 8 6 12 10 11 6 3 7 5 6 2 3 4 6 6 6 6 4 4 3 3 2 6 4 4 7 7 7 5 6 4 2 3 3 5
18 18 18 19 19 21 25 27 25 24 19 12 7 2 7 18 16 3 6 6 6 14 3 1 3 4 4 4 2 5 6 3 6 6 3 3 1 4 7 3 7 5 5 4 3 4 1
21 20 24 21 20 20 23 29 28 28 23 17 5 2 11 26 4 3 8 4 5 11 4 2 1 4 4 2 3 4 2 2 10 6 3 3 1 4 7 8 13 9 8 3 3 5 5
20 22 21 25 21 21 22 28 31 33 31 17 3 3 11 17 5 7 7 12 18 17 4 6 3 5 3 3 2 3 5 8 9 6 3 4 3 4 7 5 7 3 6 7 7 1 3
21 22 21 23 24 22 23 25 36 37 36 23 3 3 2 4 3 3 11 13 15 16 7 6 5 4 2 3 2 3 2 3 7 3 6 3 2 4 5 5 9 9 13 13 7 1 6
24 23 23 23 24 24 22 24 35 42 42 26 3 4 6 6 5 10 7 7 11 14 4 4 3 6 3 1 3 4 4 6 9 3 4 4 5 6 12 12 13 16 16 15 13 13 7
25 26 25 25 24 26 24 23 33 43 40 21 3 3 3 3 7 12 10 5 14 11 10 8 6 7 7 7 8 6 7 7 7 3 1 3 5 5 9 11 14 18 14 13 18 19 18
26 25 25 24 25 24 25 24 26 43 41 6 11 7 4 5 5 6 8 15 10 9 5 8 11 8 7 2 5 3 2 2 3 2 2 2 1 3 10 7 11 12 11 16 17 19 13
27 26 26 26 26 25 24 25 23 31 42 14 16 2 3 3 6 11 10 15 14 10 8 2 4 3 1 7 5 4 4 5 7 8 8 6 3 3 4 4 10 8 7 12 14 11 13
30 29 28 28 28 27 25 24 22 29 43 35 13 10 3 3 3 9 16 11 13 8 4 1 1 2 8 6 3 3 3 3 11 19 17 12 5 4 4 5 10 15 12 8 1 5 1
32 31 30 30 30 29 27 27 27 27 43 47 30 16 2 3 5 8 7 12 4 4 3 5 5 3 5 3 2 3 3 3 4 4 13 14 12 8 3 4 4 4 3 5 3 4 4
33 33 32 31 29 29 28 28 27 31 41 49 18 21 6 2 4 3 3 4 2 3 3 3 4 3 5 3 3 3 4 5 4 3 2 5 10 16 10 7 7 4 4 2 4 4 3
29 30 32 32 31 31 31 30 28 33 44 50 29 15 10 2 4 5 4 3 0 3 3 2 4 3 3 3 4 4 4 4 4 8 10 7 5 3 5 5 8 3 6 3 5 3 4
25 25 31 33 30 29 30 29 27 28 39 48 10 18 7 3 2 6 6 5 5 10 3 2 2 2 3 2 2 2 3 3 2 3 2 3 5 5 5 6 4 3 5 3 2 3 2
Wind_Direction
262 264 265 267 267 262 259 269 264 270 274 289 299 307 309 317 317 314 313 313 316 317 320 321 329 340 347 348 255 285 348 342 324 318 298 312 331 348 348 305 327 339 332 330 333 327 201
262 262 264 265 269 260 249 257 240 251 270 284 295 307 313 319 316 314 312 314 314 314 316 318 329 340 330 286 243 340 330 314 310 330 335 329 10 339 292 281 328 309 320 313 304 292 289
261 261 261 261 266 254 247 237 238 259 272 283 294 302 310 314 312 310 311 312 311 311 312 315 323 344 281 249 293 302 303 290 291 299 307 318 347 25 325 314 299 306 317 302 267 248 231
262 254 252 251 250 238 233 232 245 269 278 283 292 304 310 310 310 311 310 309 309 308 304 305 313 316 248 279 296 286 283 280 258 255 261 287 345 307 225 256 311 288 276 288 277 237 227
240 225 219 206 206 211 218 235 262 268 278 285 289 295 307 310 313 313 312 307 304 302 301 305 309 197 265 313 259 294 274 314 327 232 223 263 332 230 316 226 326 276 247 243 282 266 129
232 212 192 181 205 222 263 275 265 263 274 285 292 294 298 307 314 319 314 310 299 291 306 275 259 310 265 250 38 342 312 292 304 324 276 217 232 245 308 93 229 265 307 321 313 339 29
255 262 261 253 253 259 250 255 265 267 278 288 292 292 295 304 316 325 328 344 345 3 243 230 238 232 291 299 292 297 286 287 277 280 257 268 186 229 239 236 260 325 344 330 314 324 328
248 255 260 257 250 256 250 248 247 258 282 293 296 290 294 304 317 317 316 278 13 322 299 272 260 249 260 271 273 241 300 166 228 246 257 273 256 253 249 304 334 333 308 303 301 332 334
258 256 248 248 245 251 238 234 243 255 272 288 291 282 278 307 317 318 262 270 343 3 277 288 237 233 247 234 242 256 244 211 242 274 263 237 256 286 272 242 295 307 312 305 308 337 348
255 259 255 247 245 242 240 234 249 257 269 284 286 271 265 303 302 315 263 353 6 21 338 263 190 303 106 53 286 256 240 239 213 250 256 262 250 267 3 358 349 318 308 8 359 3 299
265 258 258 250 244 241 244 246 243 252 268 269 277 274 257 273 302 330 341 352 342 68 342 134 99 36 115 188 30 21 38 45 228 259 237 248 327 11 333 284 338 279 4 330 305 293 307
263 256 255 251 246 242 239 240 240 248 264 266 280 265 249 258 258 258 308 314 30 55 251 216 124 173 176 227 293 88 257 88 288 237 279 256 284 267 228 287 14 346 352 320 285 248 271
263 261 255 251 245 240 237 237 235 244 248 260 281 263 224 249 276 337 297 8 59 181 279 156 180 167 204 195 225 176 204 218 210 168 231 257 248 251 224 228 206 257 210 329 330 123 228
274 271 262 252 248 241 235 234 232 232 235 248 266 239 234 243 256 300 291 82 220 214 233 104 14 158 203 217 224 193 224 227 220 233 263 258 318 297 223 207 182 208 202 177 253 273 296
272 269 268 260 251 244 238 226 228 225 225 233 236 241 246 248 246 243 94 204 207 207 276 256 133 216 232 260 159 314 220 253 259 216 226 269 267 339 348 48 143 199 264 215 259 275 253
277 271 269 264 254 247 242 228 225 218 216 218 216 240 238 230 198 221 233 238 228 278 12 342 231 207 213 232 179 184 203 287 281 64 88 348 326 317 326 333 275 196 204 345 345 302 276
273 276 272 266 259 250 240 236 221 213 210 204 221 234 251 187 180 212 222 230 267 269 130 294 314 290 266 261 299 210 224 8 18 338 46 65 154 302 322 271 288 293 288 228 224 148 181
269 271 273 273 268 256 246 233 219 207 198 190 216 212 175 161 145 202 237 260 296 295 94 16 225 273 273 344 353 334 345 337 39 357 342 21 252 281 241 297 298 290 284 303 130 264 212
272 269 265 269 272 260 250 231 220 205 192 176 203 207 181 181 201 218 258 250 253 276 244 172 244 229 5 18 61 10 344 346 2 22 43 342 327 342 326 303 289 303 325 346 326 110 255
270 270 270 264 265 266 255 240 218 206 198 184 165 177 276 206 248 227 225 256 248 242 256 290 259 278 85 357 114 227 296 301 330 112 141 80 221 207 210 267 318 300 310 319 327 50 311
268 269 268 264 262 262 257 247 225 212 199 190 214 207 181 191 216 230 239 278 254 240 185 254 278 213 179 195 327 276 268 286 283 232 185 169 224 263 274 284 290 293 298 299 291 274 256
264 263 263 262 259 259 256 250 234 208 199 201 183 179 148 190 171 201 220 247 253 259 173 234 249 254 216 206 188 202 228 237 227 292 281 199 245 244 273 266 270 271 266 261 264 272 268
265 262 259 258 256 258 257 254 245 209 195 156 236 264 113 233 203 190 216 216 249 224 238 222 209 229 266 322 80 98 65 306 286 291 309 294 350 315 276 278 301 281 242 245 251 253 251
260 260 257 256 253 254 255 252 245 218 200 183 216 234 141 256 196 203 224 217 243 241 225 327 141 118 1 60 44 12 317 261 258 242 214 224 238 282 291 9 269 247 234 246 252 265 260
256 254 253 252 250 249 251 250 245 236 197 199 216 221 179 217 212 214 225 216 228 238 185 288 134 121 95 52 45 319 293 278 239 239 229 211 205 250 245 222 283 305 287 278 87 280 205
253 252 252 246 247 248 245 245 240 231 205 199 232 236 197 116 245 251 233 214 180 162 175 214 253 151 99 95 103 224 240 286 274 237 220 208 200 208 216 240 264 226 120 79 158 291 184
252 252 247 242 245 243 240 238 239 231 214 193 221 238 193 179 273 220 204 171 235 132 150 196 191 166 124 120 172 220 241 254 249 253 263 181 200 214 223 244 271 263 131 72 60 232 220
249 246 246 242 243 241 232 241 243 238 213 187 209 221 196 190 291 22 25 94 328 62 145 257 48 349 50 131 186 221 245 247 250 262 256 251 203 189 209 231 260 342 117 173 216 182 175
250 242 245 240 236 233 231 237 234 219 171 179 201 204 178 73 279 332 328 313 62 95 110 51 138 356 148 169 221 309 314 335 298 265 97 287 200 179 194 219 223 202 169 246 280 202 176